CDT,Max TemperatureF,Mean TemperatureF,Min TemperatureF,Max Dew PointF,MeanDew PointF,Min DewpointF,Max Humidity, Mean Humidity, Min Humidity, Max Sea Level PressureIn, Mean Sea Level PressureIn, Min Sea Level PressureIn, Max VisibilityMiles, Mean VisibilityMiles, Min VisibilityMiles, Max Wind SpeedMPH, Mean Wind SpeedMPH, Max Gust SpeedMPH,PrecipitationIn, CloudCover, Events, WindDirDegrees
2013-3-1,30,22,12,18,14,6,82,71,51,30.30,30.25,30.18,10,10,6,12,8,,0.00,6,Snow,348
2013-3-2,28,14,0,10,5,-2,88,66,37,30.33,30.25,30.15,10,10,10,12,4,,0.00,0,,300
2013-3-3,32,21,10,9,6,3,72,53,34,30.15,30.10,30.05,10,10,10,8,1,,0.00,1,,152
2013-3-4,30,20,10,21,15,5,80,71,55,30.13,30.09,30.02,10,10,10,18,7,22,0.00,7,Snow,99
2013-3-5,28,24,21,25,22,19,93,85,74,30.19,30.03,29.94,10,5,0,13,10,,0.20,8,Snow,41
2013-3-6,30,20,6,21,18,5,92,80,60,30.37,30.31,30.21,10,10,10,14,10,,0.00,6,,301
2013-3-7,33,16,-2,18,11,-6,93,72,44,30.45,30.41,30.38,10,10,8,10,4,,0.00,2,,208
2013-3-8,39,24,8,25,12,5,93,82,53,30.46,30.42,30.24,10,5,0,12,5,,0.02,0,Fog,112
2013-3-9,39,34,30,37,34,24,100,93,74,30.22,29.86,29.78,10,5,0,15,8,21,0.34,8,Fog-Rain,120
2013-3-10,37,34,32,37,34,32,100,98,93,29.85,29.76,29.70,10,3,0,14,3,18,0.26,8,Fog-Rain-Snow,20
2013-3-11,32,29,26,32,29,23,100,94,86,29.80,29.68,29.60,10,7,2,15,8,24,0.02,8,Snow,330
2013-3-12,28,24,21,25,21,16,93,83,69,30.10,29.87,29.80,10,9,6,20,11,24,0.00,7,Snow,281
2013-3-13,30,22,14,16,11,9,86,67,40,30.34,30.26,30.11,10,10,10,14,10,,0.01,1,Snow,294
2013-3-14,36,22,10,27,19,8,90,79,68,30.32,30.21,30.04,10,9,1,10,4,,0.00,5,Snow,167
2013-3-15,34,28,23,33,30,22,100,94,86,30.04,29.89,29.83,10,4,0,15,5,,0.01,8,Snow,89
2013-3-16,28,22,16,27,20,10,93,84,58,30.19,29.95,29.86,10,9,3,14,10,21,0.07,7,Snow,57
2013-3-17,28,18,7,15,9,2,78,64,50,30.31,30.19,30.03,10,10,10,15,8,,0.00,0,,88
2013-3-18,30,20,10,28,18,8,93,87,74,30.01,29.72,29.55,10,5,0,23,8,30,0.15,6,Snow,172
2013-3-19,25,17,10,9,5,1,79,57,46,30.09,29.98,29.83,10,10,10,25,20,32,0.00,2,Snow,276
2013-3-20,19,11,3,3,-1,-6,78,60,49,30.13,30.11,30.07,10,10,10,21,15,25,0.00,2,,286
2013-3-21,26,13,0,10,3,-4,85,66,47,30.13,30.09,30.05,10,10,10,9,6,,0.00,0,,281
2013-3-22,35,18,3,14,8,0,86,66,41,30.11,30.08,30.04,10,10,10,6,4,,0.01,1,,270
2013-3-23,38,25,12,21,15,9,90,66,42,30.17,30.12,30.08,10,10,10,8,3,,0.00,1,,217
2013-3-24,32,30,27,25,22,20,86,72,64,30.10,29.96,29.85,10,9,2,13,6,20,0.01,8,Snow,28
2013-3-25,35,27,19,23,20,16,85,68,60,30.16,30.00,29.92,10,10,10,14,11,23,0.00,6,,341
2013-3-26,37,32,26,25,21,19,76,66,52,30.27,30.23,30.17,10,10,10,12,7,,0.00,8,Snow,308
2013-3-27,42,32,23,25,21,18,80,61,42,30.34,30.32,30.30,10,10,10,8,5,,0.00,4,,275
2013-3-28,46,32,18,23,19,14,88,63,37,30.38,30.34,30.30,10,10,10,7,4,,0.00,1,,269
2013-3-29,51,34,17,26,21,16,93,65,32,30.36,30.29,30.21,10,10,10,6,1,,0.00,1,,145
2013-3-30,49,41,33,43,38,25,100,87,55,30.19,29.90,29.84,10,6,2,17,8,30,0.14,7,Rain,243
2013-3-31,41,34,27,39,32,15,100,86,46,29.98,29.80,29.74,10,7,3,22,8,29,0.01,7,,275